TimeAST,TemperatureF,Dew PointF,Humidity,Sea Level PressureIn,VisibilityMPH,Wind Direction,Wind SpeedMPH,Gust SpeedMPH,PrecipitationIn,Events,Conditions,WindDirDegrees,DateUTC
2:00 AM,71.6,69.8,94,29.98,6.2,Calm,Calm,-,N/A,,Partly Cloudy,0,2012-12-11 06:00:00
5:00 AM,71.6,69.8,94,29.98,6.2,Calm,Calm,-,N/A,,Partly Cloudy,0,2012-12-11 09:00:00
8:00 AM,72,70,93,30.02,10,Calm,Calm,,,,Scattered Clouds,,2012-12-11 12:00:00
8:00 AM,71.6,69.8,94,30.01,6.2,Calm,Calm,-,N/A,,Partly Cloudy,0,2012-12-11 12:00:00
9:00 AM,78.8,73.4,83,30.01,6.2,Calm,Calm,-,N/A,,Partly Cloudy,0,2012-12-11 13:00:00
10:00 AM,82.4,73.4,74,30.04,6.2,Calm,Calm,-,N/A,,Partly Cloudy,0,2012-12-11 14:00:00
11:00 AM,83,74,66,30.04,10,East,11.2,,,,Scattered Clouds,90,2012-12-11 15:00:00
11:00 AM,82.4,73.4,74,30.04,6.2,East,11.5,-,N/A,,Partly Cloudy,90,2012-12-11 15:00:00
12:00 PM,84.2,71.6,66,30.04,6.2,East,16.1,-,N/A,,Partly Cloudy,90,2012-12-11 16:00:00
1:00 PM,84.2,73.4,70,29.98,6.2,East,13.8,-,N/A,,Partly Cloudy,90,2012-12-11 17:00:00
2:00 PM,86.0,73.4,66,29.98,6.2,East,11.5,-,N/A,,Partly Cloudy,90,2012-12-11 18:00:00
3:00 PM,86.0,73.4,66,29.98,6.2,East,11.5,-,N/A,,Partly Cloudy,90,2012-12-11 19:00:00
4:00 PM,84.2,75.2,74,29.95,6.2,East,17.3,-,N/A,,Scattered Clouds,90,2012-12-11 20:00:00
5:00 PM,82.4,73.4,74,29.95,6.2,East,9.2,-,N/A,,Scattered Clouds,90,2012-12-11 21:00:00
6:00 PM,80.6,73.4,79,30.01,6.2,East,11.5,-,N/A,,Mostly Cloudy,90,2012-12-11 22:00:00
7:00 PM,78.8,73.4,83,30.01,6.2,ESE,15.0,-,N/A,,Mostly Cloudy,120,2012-12-11 23:00:00
8:00 PM,75,74,95,30.02,5,ESE,8.9,,,Rain,Light Rain,120,2012-12-12 00:00:00
8:00 PM,75.2,73.4,94,30.01,5.0,ESE,9.2,-,N/A,Rain,Light Rain,120,2012-12-12 00:00:00
11:00 PM,74,73,96,30.05,5,Calm,Calm,,,Rain,Light Rain,,2012-12-12 03:00:00
11:00 PM,75.2,73.4,94,30.04,5.0,Calm,Calm,-,N/A,Rain,Light Rain,0,2012-12-12 03:00:00